www.pogodaiklimat.ru

Погода и климат >> Архив погоды >> Россия >> Якутия >> Верхоянский Перевоз


ПОГОДА в Верхоянском Перевозе

  • Прогноз погоды в Верхоянском Перевозе
  • Монитор погоды в Верхоянском Перевозе

АРХИВ ПОГОДЫ в Верхоянском Перевозе

Время (UTC), дата Ветер
(напр.,м/с)
 
Видим.   Явления Облачность Т
(С)
Тd
(С)
f
(%)
Тe
(С)
Тes
(С)
Комфортность P
(гПа)
Po
(гПа)
Тmin
(С)
Tmax
(С)
R
(мм)
R24
(мм)
S
(см)
09 15.08 В 2 50 км 9/3 600 м
[Sc Ac trans Cs]
+25.1 +8.1 34 +25 +26 комфорт 1010.5 1000.1
12 15.08 штиль 0 50 км 10/3 600 м
[Sc Ac trans Cs]
+19.8 +9.9 53 +21 +21 комфорт 1011.7 1001.1 +26.0
15 15.08 штиль 0 50 км 10/5 600 м
[Sc As op]
+18.3 +12.4 68 +19 +19 1013.3 1002.6
18 15.08 СВ 1 50 км 10/8 600 м
[Sc As op]
+17.3 +12.6 74 +18 +18 1014.0 1003.2
21 15.08 ЮВ 2 50 км 8/3 600 м
[Sc Ac trans Cs]
+15.2 +10.4 73 +15 +15 1014.3 1003.4
00 16.08 Ю 1 10 км дым 9/0
[Cs]
+17.5 +9.7 60 +19 +24 1014.9 1004.1 +14.2
03 16.08 В 2 20 км дым 6/0
[Ac cast Cs]
+22.3 +10.5 47 +24 +32 комфорт 1014.4 1003.8
06 16.08 Ю 1 50 км {дождь} 10/8 600 м
[Sc Ac As]
+18.0 +11.4 65 +19 +20 1014.6 1003.9
09 16.08 В 1 20 км дым 9/8 1000 м
[Sc Ac As]
+18.0 +12.0 68 +19 +19 1016.1 1004.4
12 16.08 В 1 50 км 10/8 600 м
[Cb cap Ac As]
+17.5 +11.7 69 +19 +19 1015.8 1005.1 +23.1 0.0
15 16.08 В 2 50 км 10/10 600 м
[Cb cap]
+17.0 +11.3 69 +17 +17 1016.1 1005.3
18 16.08 В 2 50 км 10/10 600 м
[Cb cap]
+16.7 +10.7 68 +17 +17 1015.9 1005.1
21 16.08 В 1 4000 м ливневой дождь 10/10 600 м
[Cb cap]
+14.3 +12.3 88 +15 +15 1016.1 1005.2
00 17.08 В 1 20 км дым {ливн. осадки} 9/8 600 м
[Cb cap Ac trans]
+17.3 +11.8 70 +18 +19 1016.0 1005.2 +14.3 5
03 17.08 В 2 50 км 8/3 600 м
[Sc Ac trans Cs]
+18.8 +12.4 66 +20 +24 1016.3 1005.6
06 17.08 ЮВ 2 50 км 10/0
[Cs]
+22.9 +10.6 46 +25 +30 комфорт 1015.9 1005.3
09 17.08 В 2 50 км 8/0
[Cs]
+23.3 +9.0 40 +25 +26 комфорт 1015.6 1005.0
12 17.08 ЮВ 1 50 км 8/0
[Cs]
+18.9 +12.5 66 +21 +21 комфорт 1016.1 1005.4 +23.4
15 17.08 ЮВ 1 50 км 6/0
[Ac trans Cs]
+14.9 +9.5 70 +15 +15 1017.2 1006.3
18 17.08 штиль 0 50 км 8/0
[Ac trans Cs]
+11.7 +9.3 85 +11 +11 1018.1 1007.2
21 17.08 С 1 50 км 10/4 1000 м
[Sc Ac As]
+11.5 +10.1 91 +11 +11 1018.4 1007.2
00 18.08 штиль 0 50 км 10/3 600 м
[Sc Ac As]
+14.1 +11.5 84 +14 +15 1017.9 1007.0 +10.7
03 18.08 штиль 0 50 км 10/10 600 м
[Sc]
+17.3 +10.4 64 +17 +17 1017.8 1007.0
06 18.08 штиль 0 20 км дым 10/6 600 м
[Sc Ac As]
+19.2 +13.2 68 +20 +21 1015.8 1005.1
09 18.08 ЮВ 1 20 км дым 10/8 600 м
[Sc As op]
+18.9 +11.2 61 +21 +21 комфорт 1015.8 1005.1
12 18.08 штиль 0 50 км 10/6 600 м
[Sc As op]
+14.5 +9.5 72 +14 +14 1016.7 1005.8 +19.9
15 18.08 штиль 0 50 км 10/5 600 м
[Sc As op]
+13.2 +10.7 85 +13 +13 1017.1 1006.2
18 18.08 штиль 0 50 км 10/10 600 м
[Cb cap]
+13.3 +9.8 79 +13 +13 1017.1 1006.2
21 18.08 ЮВ 1 50 км 10/6 600 м
[Cb cap Ac As]
+12.9 +9.8 81 +13 +13 1017.2 1006.3
00 19.08 Ю 1 20 км дым 10/5 600 м
[Sc As op]
+15.3 +10.4 73 +16 +17 1017.8 1006.9 +12.9
03 19.08 ЮВ 1 20 км дым 10/6 600 м
[Sc Ac As]
+16.9 +19.7 100 +18 +19 1018.3 1007.4
06 19.08 В 3 50 км 10/10 600 м
[Sc]
+19.0 +8.4 50 +20 +20 1017.9 1007.2
09 19.08 В 2 50 км 10/10 600 м
[Cb cap]
+18.7 +8.3 51 +20 +20 1018.1 1007.4
12 19.08 В 1 50 км 10/10 600 м
[Cb cap]
+17.2 +9.4 60 +18 +18 1018.4 1007.6 +19.3
15 19.08 В 2 50 км 10/10 600 м
[Cb cap]
+16.3 +9.6 65 +16 +16 1018.9 1008.1
18 19.08 В 2 50 км 10/10 600 м
[Cb cap]
+15.5 +10.2 71 +15 +15 1019.0 1008.1
21 19.08 В 1 20 км дым 10/8 600 м
[Cb cap Ac As]
+15.1 +9.3 68 +16 +16 1018.9 1008.0
00 20.08 штиль 0 2000 м мгла 10/10 600 м
[Sc]
+15.3 +9.7 69 +15 +15 1018.7 1007.8 +15.2
03 20.08 В 2 4000 м мгла 10/6 600 м
[Sc Ac As Cs]
+16.7 +10.5 67 +17 +19 1018.5 1007.7
06 20.08 В 1 10 км дым 10/10 600 м
[Sc]
+18.9 +11.0 60 +21 +21 комфорт 1018.3 1007.5
09 20.08 В 1 20 км дым 10/8 600 м
[Cb cap Ac As]
+18.7 +10.6 59 +20 +20 1017.8 1007.1
12 20.08 Ю 1 50 км 10/10 600 м
[Cb cap]
+16.6 +11.8 73 +17 +17 1018.5 1007.7 +19.0
15 20.08 ЮВ 1 20 км слаб. ливневой дождь 10/10 600 м
[Cb cap]
+14.9 +11.4 80 +15 +15 1019.5 1008.6
18 20.08 В 2 20 км слаб. ливневой дождь 10/10 600 м
[Cb cap]
+14.3 +12.5 89 +14 +14 1019.9 1009.0
21 20.08 В 2 50 км {ливн. осадки} 10/8 600 м
[Cb cap Ac trans]
+14.2 +13.5 96 +14 +14 1019.3 1008.4
00 21.08 В 2 10 км дым {ливн. осадки} 10/8 600 м
[Sc Ac As]
+15.5 +11.4 77 +15 +16 1019.4 1008.6 +14.0 0.3
03 21.08 В 1 20 км дым 10/6 600 м
[Sc Ac As]
+18.7 +11.8 64 +20 +22 1019.7 1008.9
06 21.08 В 1 50 км 9/5 600 м
[Cb cap Ac trans]
+19.9 +11.8 60 +23 +24 комфорт 1019.6 1008.9
09 21.08 штиль 0 50 км 8/8 600 м
[Sc]
+20.5 +10.2 52 +22 +22 комфорт 1018.5 1007.8
12 21.08 штиль 0 50 км 4/3 600 м
[Sc Ci fib]
+14.3 +11.7 84 +14 +14 1017.9 1007.0 +21.3
15 21.08 штиль 0 50 км 3/0
[Cs]
+8.8 +7.8 93 +8 +8 1018.5 1007.4
18 21.08 ЮВ 1 50 км 9/9 600 м
[Sc]
+10.5 +9.7 95 +10 +10 1018.6 1007.5
21 21.08 штиль 0 50 км 9/9 600 м
[Sc]
+11.2 +10.2 94 +10 +11 1017.9 1006.9
00 22.08 штиль 0 50 км 8/8 600 м
[Cb cap]
+15.5 +11.6 78 +15 +17 1017.5 1006.7 +9.2
03 22.08 СЗ 1 50 км 6/4 600 м
[Cb cap Ci fib]
+19.3 +9.3 52 +21 +27 комфорт 1016.9 1006.2

 

Местоположение метеостанции Верхоянский Перевоз (Якутия, Россия): широта 63.32 долгота 132.00 высота над уровнем моря 91 м.

В архиве по умолчанию представлена погода в Верхоянском Перевозе за последнюю неделю. Архивные данные за месяц целиком и за предыдущие месяцы, начиная с января 2011 года, Вы можете получить, выбрав интересующий диапазон дат из раскрывающегося списка и нажав кнопку "Ввод!".


*Определитесь, кто Вы:
робот инопланетянин человек

Внимание! Время в таблицах - всемирное. Для получения местного времени необходимо прибавить поправку, которая равна 9 ч.

Смотрите также архив погоды в соседних городах и на ближайших метеорологических станциях:

Погода в Сеген-Кюеле (Якутия, Россия) (113 км)
Погода в Ытык-Кюёле (Якутия, Россия) (130 км)
Погода в Батамае (Якутия, Россия) (131 км)
Погода в Крест-Хальджае (Якутия, Россия) (133 км)
Погода в Намцах (Якутия, Россия) (138 км)
Погода в Чурапче (Якутия, Россия) (147 км)
Погода в Якутске (Якутия, Россия) (191 км)
Погода в Томпо (Якутия, Россия) (200 км)
Погода в Сангаре (Якутия, Россия) (238 км)
Погода в Себян-Кюеле (Якутия, Россия) (240 км)

Пояснения к столбцам:

Ветер - указаны скорость ветра в м/с - средняя за 10 мин, порывы в срок и между сроками (в фигурных скобках) и направление, откуда дует ветер: С - северный, СВ - северо-восточный, В - восточный, ЮВ - юго-восточный, Ю - южный, ЮЗ - юго-западный, З - западный, СЗ - северо-западный.
Видимость - горизонтальная дальность видимости в метрах или километрах. При видимости от 1 до 10 км при отсутствии осадков обычно наблюдается дымка, при ухудшении видимости до 1 км и менее - туман. В сухую погоду видимость может ухудшаться дымом, пылью или мглою.
Явления - указаны атмосферные явления, наблюдавшиеся в срок или в последний час перед сроком; фигурными скобками обозначены явления, наблюдавшиеся между сроками (за 1-3 часа до срока); квадратными скобками обозначены град или гололедные отложения с указанием их диаметра в мм.
Облачность - указаны через наклонную черту общая и нижняя облачность в баллах и высота нижней границы облаков в метрах; квадратными скобками обозначены формы облаков: Ci - перистые, Cs - перисто-слоистые, Cc - перисто-кучевые, Ac - высококучевые, As - высокослоистые, Sc - слоисто-кучевые, Ns - слоисто-дождевые, Cu - кучевые, Cb - кучево-дождевые. Подробнее классификацию облаков см. в Атласе облаков (PDF).
T - Температура воздуха - температура, измеренная на высоте 2 м над землей.
Td - Температура точки росы - температура, при понижении до которой содержащийся в воздухе водяной пар достигнет насыщения.
f - Относительная влажность воздуха - влажноcть воздуха, измеренная на высоте 2 м над землей.
Te - Эффективная температура - температура, которую ощущает одетый по сезону человек в тени. Характеристика душности погоды. При расчете учитывается влияние влажности воздуха и скорости ветра на теплоощущения человека.
Tes - Эффективная температура на солнце - температура, которую ощущает человек, с поправкой на солнечный нагрев. Характеристика знойности погоды. Зависит от высоты солнца над горизонтом, облачности и скорости ветра. Ночью, в пасмурную погоду, а также при ветре 12 м/с и более поправка равна нулю.
P - Атмосферное давление - приведенное к уровню моря атмосферное давление.
Po - Атмосферное давление - измеренное на уровне метеостанции атмосферное давление.
Tmin - Минимальная температура - минимум температуры воздуха на высоте 2 м над землей.
Tmax - Максимальная температура - максимум температуры воздуха на высоте 2 м над землей.
R - Количество осадков - Количество выпавших осадков за период времени, мм. При наведении курсора мыши на число - период времени, за который выпало указанное количество осадков.
R24 - Количество осадков - Количество выпавших осадков за 24 часа, мм.
S - Снежный покров - Высота снежного покрова, см. При наведении курсора мыши на число - состояние снежного покрова и степень покрытия местности в баллах.